Location: 22
(39.7117°N, 89.5929°W)
Time: 09:57:29
(UTC-05:00)

Vanguard 1 Rocket - Pass Details

Date: 13 February 2023
Orbit: 652 x 4223 km, 34.3° (Epoch: 24 March)

Event Time Altitude Azimuth Distance (km) Brightness Sun altitude
Rises 14:03:43 0° 275° (W) 4,613 11.3 31.1°
Reaches altitude 10° 14:06:14 10° 271° (W) 3,958 11.2 30.8°
Maximum altitude 14:17:05 55° 197° (SSW) 2,958 11.3 29.7°
Drops below altitude 10° 14:37:24 10° 128° (SE) 6,982 11.9 27.3°
Sets 14:43:46 0° 124° (SE) 8,293 12.2 26.5°
